,,,PA_Meas_PMT16A,,PR_Meas_QMR101_102,,RH_Meas_QMH101,,SR_Meas_QMS101,,TA_Meas_QMH101,,GenWind,,GenWind,
date,time,status,PA,status,PR,status,RH,status,SR,status,TA,status,DirAvg,status,SpdAvg,
2012-09-09, 00:00:04,VALID,1001.34,VALID,0,VALID,93.028,VALID,0,VALID,23.8945,VALID,79,VALID,0.40625,
2012-09-09, 00:01:04,VALID,1001.34,VALID,0,VALID,93.1119,VALID,0,VALID,23.8945,VALID,79,VALID,0.373047,
2012-09-09, 00:02:04,VALID,1001.35,VALID,0,VALID,93.1805,VALID,0,VALID,23.8963,VALID,79,VALID,0.277344,
2012-09-09, 00:03:04,VALID,1001.34,VALID,0,VALID,93.2187,VALID,0,VALID,23.8945,VALID,79,VALID,0.148828,
2012-09-09, 00:04:04,VALID,1001.36,VALID,0,VALID,93.2797,VALID,0,VALID,23.8963,VALID,79,VALID,0.378516,
2012-09-09, 00:05:04,VALID,1001.35,VALID,0,VALID,93.3713,VALID,0,VALID,23.9159,VALID,79,VALID,0.280859,
2012-09-09, 00:06:04,VALID,1001.32,VALID,0,VALID,93.3866,VALID,0,VALID,23.8945,VALID,79,VALID,0.167969,
2012-09-09, 00:07:04,VALID,1001.33,VALID,0,VALID,93.3942,VALID,0,VALID,23.8945,VALID,79,VALID,0.154687,
2012-09-09, 00:08:04,VALID,1001.33,VALID,0,VALID,93.501,VALID,0,VALID,23.9354,VALID,79,VALID,0.267188,
2012-09-09, 00:09:04,VALID,1001.33,VALID,0,VALID,93.6154,VALID,0,VALID,23.9336,VALID,79,VALID,0.128906,
2012-09-09, 00:10:04,VALID,1001.32,VALID,0,VALID,93.6078,VALID,0,VALID,23.9531,VALID,79,VALID,0.0324219,
2012-09-09, 00:11:04,VALID,1001.32,VALID,0,VALID,93.5926,VALID,0,VALID,23.9549,VALID,79,VALID,0.560547,
2012-09-09, 00:12:04,VALID,1001.32,VALID,0,VALID,93.4323,VALID,0,VALID,23.914,VALID,79,VALID,0.542188,
2012-09-09, 00:13:04,VALID,1001.31,VALID,0,VALID,93.3484,VALID,0,VALID,23.8945,VALID,77,VALID,0.533594,
2012-09-09, 00:14:04,VALID,1001.29,VALID,0,VALID,93.3637,VALID,0,VALID,23.8945,VALID,27,VALID,0.338672,
2012-09-09, 00:15:04,VALID,1001.29,VALID,0,VALID,93.2721,VALID,0,VALID,23.875,VALID,27,VALID,0.507422,
2012-09-09, 00:16:04,VALID,1001.26,VALID,0,VALID,93.2416,VALID,0,VALID,23.875,VALID,27,VALID,0.505469,
2012-09-09, 00:17:04,VALID,1001.22,VALID,0,VALID,93.2797,VALID,0,VALID,23.8555,VALID,27,VALID,0.20625,
2012-09-09, 00:18:04,VALID,1001.21,VALID,0,VALID,93.2187,VALID,0,VALID,23.836,VALID,27,VALID,0.210938,
2012-09-09, 00:19:04,VALID,1001.17,VALID,0,VALID,93.1882,VALID,0,VALID,23.8378,VALID,27,VALID,0.0777344,
2012-09-09, 00:20:04,VALID,1001.15,VALID,0,VALID,93.1958,VALID,0,VALID,23.8165,VALID,27,VALID,0.126563,
2012-09-09, 00:21:04,VALID,1001.15,VALID,0,VALID,93.2034,VALID,0,VALID,23.8165,VALID,27,VALID,0.0503906,
2012-09-09, 00:22:04,VALID,1001.11,VALID,0,VALID,93.2568,VALID,0,VALID,23.8183,VALID,27,VALID,0.169922,
2012-09-09, 00:23:04,VALID,1001.08,VALID,0,VALID,93.3103,VALID,0,VALID,23.7775,VALID,27,VALID,0.264453,
2012-09-09, 00:24:04,VALID,1001.05,VALID,0,VALID,93.3331,VALID,0,VALID,23.7775,VALID,27,VALID,0.476563,
2012-09-09, 00:25:04,VALID,1001.01,VALID,0,VALID,93.3637,VALID,0,VALID,23.7775,VALID,27,VALID,0.521094,
2012-09-09, 00:26:04,VALID,1001.02,VALID,0,VALID,93.356,VALID,0,VALID,23.7579,VALID,27,VALID,0.684375,
2012-09-09, 00:27:04,VALID,1000.97,VALID,0,VALID,93.3408,VALID,0,VALID,23.7579,VALID,27,VALID,0.75,
2012-09-09, 00:28:04,VALID,1000.97,VALID,0,VALID,93.2645,VALID,0,VALID,23.7189,VALID,16,VALID,0.711719,
2012-09-09, 00:29:04,VALID,1000.97,VALID,0,VALID,93.15,VALID,0,VALID,23.6799,VALID,16,VALID,0.776172,
2012-09-09, 00:30:04,VALID,1000.94,VALID,0,VALID,93.1882,VALID,0,VALID,23.6604,VALID,16,VALID,0.710938,
2012-09-09, 00:31:04,VALID,1000.92,VALID,0,VALID,93.3713,VALID,0,VALID,23.6409,VALID,16,VALID,0.823047,
2012-09-09, 00:32:04,VALID,1000.94,VALID,0,VALID,93.4552,VALID,0,VALID,23.6604,VALID,16,VALID,0.813281,
2012-09-09, 00:33:04,VALID,1000.91,VALID,0,VALID,93.5468,VALID,0,VALID,23.6409,VALID,16,VALID,0.858203,
2012-09-09, 00:34:04,VALID,1000.9,VALID,0,VALID,93.6078,VALID,0,VALID,23.6604,VALID,16,VALID,0.982422,
2012-09-09, 00:35:04,VALID,1000.88,VALID,0,VALID,93.6383,VALID,0,VALID,23.6799,VALID,16,VALID,1.10781,
2012-09-09, 00:36:04,VALID,1000.85,VALID,0,VALID,93.5849,VALID,0,VALID,23.6799,VALID,16,VALID,1.12969,
2012-09-09, 00:37:04,VALID,1000.86,VALID,0,VALID,93.5315,VALID,0,VALID,23.6799,VALID,23,VALID,1.10352,
2012-09-09, 00:38:04,VALID,1000.82,VALID,0,VALID,93.4018,VALID,0,VALID,23.6604,VALID,27,VALID,1.19141,
2012-09-09, 00:39:04,VALID,1000.84,VALID,0,VALID,93.2492,VALID,0,VALID,23.6409,VALID,28,VALID,0.965234,
2012-09-09, 00:40:04,VALID,1000.78,VALID,0,VALID,93.2416,VALID,0,VALID,23.6019,VALID,28,VALID,0.949219,
2012-09-09, 00:41:04,VALID,1000.78,VALID,0,VALID,93.3484,VALID,0,VALID,23.6019,VALID,29,VALID,1.10469,
2012-09-09, 00:42:04,VALID,1000.75,VALID,0,VALID,93.5239,VALID,0,VALID,23.5823,VALID,36,VALID,1.07656,
2012-09-09, 00:43:04,VALID,1000.77,VALID,0,VALID,93.5697,VALID,0,VALID,23.5628,VALID,40,VALID,0.869141,
2012-09-09, 00:44:04,VALID,1000.78,VALID,0,VALID,93.6765,VALID,0.104696,VALID,23.5628,VALID,40,VALID,0.862109,
2012-09-09, 00:45:04,VALID,1000.77,VALID,0,VALID,93.8367,VALID,0,VALID,23.5433,VALID,40,VALID,0.777734,
2012-09-09, 00:46:04,VALID,1000.78,VALID,0,VALID,93.9206,VALID,0,VALID,23.5628,VALID,40,VALID,0.769531,
2012-09-09, 00:47:04,VALID,1000.79,VALID,0,VALID,94.0351,VALID,0,VALID,23.5433,VALID,40,VALID,0.849219,
2012-09-09, 00:48:04,VALID,1000.77,VALID,0,VALID,94.0961,VALID,0.104696,VALID,23.5433,VALID,40,VALID,0.980469,
2012-09-09, 00:49:04,VALID,1000.77,VALID,0,VALID,94.1648,VALID,0,VALID,23.5451,VALID,40,VALID,0.983594,
2012-09-09, 00:50:04,VALID,1000.78,VALID,0,VALID,94.2563,VALID,0,VALID,23.5238,VALID,40,VALID,0.847266,
2012-09-09, 00:51:04,VALID,1000.78,VALID,0,VALID,94.3021,VALID,0.104696,VALID,23.5238,VALID,40,VALID,0.652734,
2012-09-09, 00:52:04,VALID,1000.78,VALID,0,VALID,94.3326,VALID,0,VALID,23.5043,VALID,40,VALID,0.530078,
2012-09-09, 00:53:04,VALID,1000.77,VALID,0,VALID,94.3403,VALID,0,VALID,23.5256,VALID,40,VALID,0.476563,
2012-09-09, 00:54:04,VALID,1000.77,VALID,0,VALID,94.325,VALID,0,VALID,23.5238,VALID,91,VALID,0.710156,
2012-09-09, 00:55:04,VALID,1000.78,VALID,0,VALID,94.1571,VALID,0,VALID,23.5043,VALID,91,VALID,0.667578,
2012-09-09, 00:56:04,VALID,1000.77,VALID,0,VALID,94.0274,VALID,0,VALID,23.5433,VALID,91,VALID,0.675391,
2012-09-09, 00:57:04,VALID,1000.76,VALID,0,VALID,93.8596,VALID,0,VALID,23.5433,VALID,91,VALID,0.452734,
2012-09-09, 00:58:04,VALID,1000.76,VALID,0,VALID,93.6994,VALID,0,VALID,23.5646,VALID,91,VALID,0.114453,
2012-09-09, 00:59:04,VALID,1000.74,VALID,0,VALID,93.5697,VALID,0,VALID,23.5433,VALID,91,VALID,0.0710938,
2012-09-09, 01:00:04,VALID,1000.72,VALID,0,VALID,93.4934,VALID,0,VALID,23.5646,VALID,91,VALID,0,
2012-09-09, 01:01:04,VALID,1000.69,VALID,0,VALID,93.562,VALID,0,VALID,23.6036,VALID,91,VALID,0.409375,
2012-09-09, 01:02:04,VALID,1000.68,VALID,0,VALID,93.6383,VALID,0,VALID,23.6036,VALID,91,VALID,0.323047,
2012-09-09, 01:03:04,VALID,1000.63,VALID,0,VALID,93.6688,VALID,0,VALID,23.6214,VALID,91,VALID,0.407422,
2012-09-09, 01:04:04,VALID,1000.66,VALID,0,VALID,93.6383,VALID,0,VALID,23.6427,VALID,91,VALID,0.703906,
2012-09-09, 01:05:04,VALID,1000.66,VALID,0,VALID,93.6231,VALID,0,VALID,23.6214,VALID,91,VALID,0.659375,
2012-09-09, 01:06:04,VALID,1000.67,VALID,0,VALID,93.6307,VALID,0,VALID,23.6409,VALID,91,VALID,0.661719,
2012-09-09, 01:07:04,VALID,1000.67,VALID,0,VALID,93.7146,VALID,0.104696,VALID,23.6409,VALID,100,VALID,0.900391,
2012-09-09, 01:08:04,VALID,1000.69,VALID,0,VALID,93.8443,VALID,0,VALID,23.6604,VALID,100,VALID,0.466406,
2012-09-09, 01:09:04,VALID,1000.68,VALID,0,VALID,93.8825,VALID,0,VALID,23.6817,VALID,100,VALID,0.556641,
2012-09-09, 01:10:04,VALID,1000.67,VALID,0,VALID,93.9206,VALID,0,VALID,23.6799,VALID,101,VALID,0.809375,
2012-09-09, 01:11:04,VALID,1000.68,VALID,0,VALID,93.9054,VALID,0,VALID,23.7012,VALID,102,VALID,0.71875,
2012-09-09, 01:12:04,VALID,1000.64,VALID,0,VALID,93.7985,VALID,0,VALID,23.6604,VALID,102,VALID,0.366406,
2012-09-09, 01:13:04,VALID,1000.66,VALID,0,VALID,93.7299,VALID,0,VALID,23.6409,VALID,102,VALID,0.547656,
2012-09-09, 01:14:04,VALID,1000.67,VALID,0,VALID,93.7375,VALID,0,VALID,23.6214,VALID,102,VALID,0.508594,
2012-09-09, 01:15:04,VALID,1000.64,VALID,0,VALID,93.7451,VALID,0,VALID,23.6232,VALID,94,VALID,0.504687,
2012-09-09, 01:16:04,VALID,1000.63,VALID,0,VALID,93.8138,VALID,0.104696,VALID,23.6036,VALID,94,VALID,0.646875,
2012-09-09, 01:17:04,VALID,1000.6,VALID,0,VALID,93.852,VALID,0,VALID,23.5628,VALID,94,VALID,0.613672,
2012-09-09, 01:18:04,VALID,1000.58,VALID,0,VALID,93.8901,VALID,0,VALID,23.5451,VALID,38,VALID,0.856641,
2012-09-09, 01:19:04,VALID,1000.59,VALID,0,VALID,93.8901,VALID,0,VALID,23.5433,VALID,36,VALID,0.547266,
2012-09-09, 01:20:04,VALID,1000.6,VALID,0,VALID,93.8443,VALID,0,VALID,23.5451,VALID,36,VALID,0.452344,
2012-09-09, 01:21:04,VALID,1000.64,VALID,0,VALID,93.7985,VALID,0,VALID,23.5238,VALID,36,VALID,0.369922,
2012-09-09, 01:22:04,VALID,1000.64,VALID,0,VALID,93.768,VALID,0,VALID,23.5238,VALID,36,VALID,0.290625,
2012-09-09, 01:23:04,VALID,1000.65,VALID,0,VALID,93.6765,VALID,0,VALID,23.5433,VALID,36,VALID,0.0410156,
2012-09-09, 01:24:04,VALID,1000.68,VALID,0,VALID,93.5926,VALID,0,VALID,23.5646,VALID,36,VALID,0.272266,
2012-09-09, 01:25:04,VALID,1000.66,VALID,0,VALID,93.5468,VALID,0,VALID,23.5646,VALID,36,VALID,0.132422,
2012-09-09, 01:26:04,VALID,1000.67,VALID,0,VALID,93.5926,VALID,0,VALID,23.5433,VALID,36,VALID,0.314844,
2012-09-09, 01:27:04,VALID,1000.64,VALID,0,VALID,93.5697,VALID,0,VALID,23.5646,VALID,36,VALID,0,
2012-09-09, 01:28:04,VALID,1000.63,VALID,0,VALID,93.501,VALID,0,VALID,23.5433,VALID,36,VALID,0,
2012-09-09, 01:29:04,VALID,1000.65,VALID,0,VALID,93.44,VALID,0,VALID,23.5646,VALID,36,VALID,0,
2012-09-09, 01:30:04,VALID,1000.66,VALID,0,VALID,93.3713,VALID,0,VALID,23.5451,VALID,36,VALID,0,
2012-09-09, 01:31:04,VALID,1000.64,VALID,0,VALID,93.3484,VALID,0,VALID,23.5043,VALID,36,VALID,0,
2012-09-09, 01:32:04,VALID,1000.65,VALID,0,VALID,93.4552,VALID,0,VALID,23.4848,VALID,36,VALID,0,
2012-09-09, 01:33:04,VALID,1000.66,VALID,0,VALID,93.5315,VALID,0,VALID,23.4848,VALID,36,VALID,0,
2012-09-09, 01:34:04,VALID,1000.7,VALID,0,VALID,93.5239,VALID,0,VALID,23.4653,VALID,36,VALID,0,
2012-09-09, 01:35:04,VALID,1000.69,VALID,0,VALID,93.6078,VALID,0,VALID,23.4653,VALID,36,VALID,0,
2012-09-09, 01:36:04,VALID,1000.72,VALID,0,VALID,93.7146,VALID,0,VALID,23.4866,VALID,36,VALID,0,
2012-09-09, 01:37:04,VALID,1000.71,VALID,0,VALID,93.7909,VALID,0,VALID,23.4671,VALID,36,VALID,0,
2012-09-09, 01:38:04,VALID,1000.67,VALID,0,VALID,93.7833,VALID,0,VALID,23.4671,VALID,36,VALID,0,
2012-09-09, 01:39:04,VALID,1000.67,VALID,0,VALID,93.8291,VALID,0,VALID,23.4671,VALID,36,VALID,0,
2012-09-09, 01:40:04,VALID,1000.66,VALID,0,VALID,93.9206,VALID,0,VALID,23.4458,VALID,36,VALID,0,
2012-09-09, 01:41:04,VALID,1000.61,VALID,0,VALID,93.9511,VALID,0,VALID,23.4263,VALID,36,VALID,0,
2012-09-09, 01:42:04,VALID,1000.62,VALID,0,VALID,93.9893,VALID,0,VALID,23.4475,VALID,36,VALID,0,
2012-09-09, 01:43:04,VALID,1000.62,VALID,0,VALID,94.0503,VALID,0,VALID,23.4263,VALID,36,VALID,0,
2012-09-09, 01:44:05,VALID,1000.64,VALID,0,VALID,94.1343,VALID,0,VALID,23.4671,VALID,36,VALID,0,
2012-09-09, 01:45:05,VALID,1000.62,VALID,0,VALID,94.1953,VALID,0,VALID,23.4866,VALID,36,VALID,0,
2012-09-09, 01:46:05,VALID,1000.61,VALID,0,VALID,94.2182,VALID,0,VALID,23.5061,VALID,138,VALID,0.878516,
2012-09-09, 01:47:05,VALID,1000.6,VALID,0,VALID,94.2334,VALID,0,VALID,23.5646,VALID,166,VALID,1.19961,
2012-09-09, 01:48:05,VALID,1000.61,VALID,0,VALID,94.2487,VALID,0,VALID,23.6036,VALID,166,VALID,1.05273,
2012-09-09, 01:49:05,VALID,1000.6,VALID,0,VALID,94.2029,VALID,0,VALID,23.6232,VALID,166,VALID,0.935156,
2012-09-09, 01:50:05,VALID,1000.59,VALID,0,VALID,94.1114,VALID,0,VALID,23.6427,VALID,155,VALID,0.998047,
2012-09-09, 01:51:05,VALID,1000.58,VALID,0,VALID,94.0351,VALID,0,VALID,23.6409,VALID,155,VALID,0.625391,
2012-09-09, 01:52:05,VALID,1000.56,VALID,0,VALID,93.913,VALID,0,VALID,23.6409,VALID,155,VALID,0.570703,
2012-09-09, 01:53:05,VALID,1000.55,VALID,0,VALID,93.8443,VALID,0,VALID,23.6409,VALID,155,VALID,0.548047,
2012-09-09, 01:54:05,VALID,1000.55,VALID,0,VALID,93.707,VALID,0,VALID,23.6409,VALID,155,VALID,0.528125,
2012-09-09, 01:55:05,VALID,1000.53,VALID,0,VALID,93.6078,VALID,0,VALID,23.6604,VALID,155,VALID,0.719531,
2012-09-09, 01:56:05,VALID,1000.52,VALID,0,VALID,93.5239,VALID,0,VALID,23.6604,VALID,155,VALID,0.45,
2012-09-09, 01:57:05,VALID,1000.51,VALID,0,VALID,93.4247,VALID,0,VALID,23.6604,VALID,155,VALID,0.604297,
2012-09-09, 01:58:05,VALID,1000.52,VALID,0,VALID,93.3866,VALID,0,VALID,23.6604,VALID,155,VALID,0.739062,
2012-09-09, 01:59:05,VALID,1000.51,VALID,0,VALID,93.2645,VALID,0,VALID,23.6817,VALID,155,VALID,0.717188,
2012-09-09, 02:00:05,VALID,1000.51,VALID,0,VALID,93.1119,VALID,0,VALID,23.6622,VALID,155,VALID,0.769922,
2012-09-09, 02:01:05,VALID,1000.49,VALID,0,VALID,92.9135,VALID,0,VALID,23.6409,VALID,155,VALID,0.648828,
2012-09-09, 02:02:05,VALID,1000.51,VALID,0,VALID,92.822,VALID,0,VALID,23.6214,VALID,155,VALID,0.637891,
2012-09-09, 02:03:05,VALID,1000.5,VALID,0,VALID,92.8296,VALID,0,VALID,23.6214,VALID,155,VALID,0.625781,
2012-09-09, 02:04:05,VALID,1000.48,VALID,0,VALID,92.8143,VALID,0,VALID,23.6214,VALID,155,VALID,0.519531,
2012-09-09, 02:05:05,VALID,1000.48,VALID,0,VALID,92.8525,VALID,0,VALID,23.6019,VALID,155,VALID,0.583203,
2012-09-09, 02:06:05,VALID,1000.51,VALID,0,VALID,92.9288,VALID,0,VALID,23.5823,VALID,148,VALID,0.932422,
2012-09-09, 02:07:05,VALID,1000.51,VALID,0,VALID,93.0203,VALID,0.104696,VALID,23.5628,VALID,127,VALID,1.04766,
2012-09-09, 02:08:05,VALID,1000.51,VALID,0,VALID,93.1882,VALID,0.104696,VALID,23.5646,VALID,126,VALID,0.949219,
2012-09-09, 02:09:05,VALID,1000.5,VALID,0,VALID,93.4171,VALID,0,VALID,23.5238,VALID,126,VALID,0.722266,
2012-09-09, 02:10:05,VALID,1000.52,VALID,0,VALID,93.6078,VALID,0.104696,VALID,23.5256,VALID,126,VALID,0.710938,
2012-09-09, 02:11:05,VALID,1000.46,VALID,0,VALID,93.7985,VALID,0,VALID,23.4848,VALID,126,VALID,0.788281,
2012-09-09, 02:12:05,VALID,1000.49,VALID,0,VALID,93.9206,VALID,0.104696,VALID,23.4848,VALID,126,VALID,0.664063,
2012-09-09, 02:13:05,VALID,1000.46,VALID,0,VALID,94.0427,VALID,0,VALID,23.5061,VALID,126,VALID,0.816016,
2012-09-09, 02:14:05,VALID,1000.49,VALID,0,VALID,94.0885,VALID,0,VALID,23.4653,VALID,126,VALID,0.617578,
2012-09-09, 02:15:05,VALID,1000.48,VALID,0,VALID,94.119,VALID,0,VALID,23.4653,VALID,126,VALID,0.587109,
2012-09-09, 02:16:05,VALID,1000.47,VALID,0,VALID,94.1114,VALID,0,VALID,23.4458,VALID,126,VALID,0.432422,
2012-09-09, 02:17:05,VALID,1000.49,VALID,0,VALID,94.1114,VALID,0,VALID,23.4671,VALID,126,VALID,0.280078,
2012-09-09, 02:18:05,VALID,1000.45,VALID,0,VALID,94.0427,VALID,0,VALID,23.4475,VALID,126,VALID,0.470703,
2012-09-09, 02:19:05,VALID,1000.49,VALID,0,VALID,93.8901,VALID,0,VALID,23.428,VALID,126,VALID,0.655078,
2012-09-09, 02:20:05,VALID,1000.45,VALID,0,VALID,93.7757,VALID,0,VALID,23.4067,VALID,126,VALID,0.314844,
2012-09-09, 02:21:05,VALID,1000.46,VALID,0,VALID,93.6765,VALID,0,VALID,23.428,VALID,126,VALID,0.561719,
2012-09-09, 02:22:05,VALID,1000.49,VALID,0,VALID,93.5849,VALID,0,VALID,23.4298,VALID,126,VALID,0.549609,
2012-09-09, 02:23:05,VALID,1000.47,VALID,0,VALID,93.501,VALID,0,VALID,23.428,VALID,126,VALID,0.514063,
2012-09-09, 02:24:05,VALID,1000.5,VALID,0,VALID,93.5163,VALID,0,VALID,23.4298,VALID,126,VALID,0.203906,
2012-09-09, 02:25:05,VALID,1000.51,VALID,0,VALID,93.5926,VALID,0,VALID,23.4493,VALID,126,VALID,0.447656,
2012-09-09, 02:26:05,VALID,1000.52,VALID,0,VALID,93.6231,VALID,0,VALID,23.4493,VALID,126,VALID,0.416797,
2012-09-09, 02:27:05,VALID,1000.52,VALID,0,VALID,93.6383,VALID,0,VALID,23.4085,VALID,126,VALID,0.103906,
2012-09-09, 02:28:05,VALID,1000.49,VALID,0,VALID,93.6231,VALID,0,VALID,23.428,VALID,126,VALID,0.123828,
2012-09-09, 02:29:05,VALID,1000.47,VALID,0,VALID,93.6307,VALID,0,VALID,23.4298,VALID,126,VALID,0,
2012-09-09, 02:30:05,VALID,1000.45,VALID,0,VALID,93.6536,VALID,0,VALID,23.4298,VALID,126,VALID,0.269141,
2012-09-09, 02:31:05,VALID,1000.44,VALID,0,VALID,93.7223,VALID,0,VALID,23.4298,VALID,126,VALID,0.604297,
2012-09-09, 02:32:05,VALID,1000.42,VALID,0,VALID,93.7909,VALID,0,VALID,23.4493,VALID,126,VALID,0.858984,
2012-09-09, 02:33:05,VALID,1000.43,VALID,0,VALID,93.707,VALID,0,VALID,23.4884,VALID,126,VALID,0.607031,
2012-09-09, 02:34:05,VALID,1000.42,VALID,0,VALID,93.4705,VALID,0,VALID,23.4671,VALID,126,VALID,0.708984,
2012-09-09, 02:35:05,VALID,1000.43,VALID,0,VALID,93.3637,VALID,0,VALID,23.4671,VALID,126,VALID,0.441016,
2012-09-09, 02:36:05,VALID,1000.46,VALID,0,VALID,93.3103,VALID,0,VALID,23.4671,VALID,126,VALID,0.253516,
2012-09-09, 02:37:05,VALID,1000.45,VALID,0,VALID,93.2187,VALID,0,VALID,23.4671,VALID,126,VALID,0.173438,
2012-09-09, 02:38:05,VALID,1000.47,VALID,0,VALID,93.2111,VALID,0,VALID,23.4458,VALID,126,VALID,0.114844,
2012-09-09, 02:39:05,VALID,1000.44,VALID,0,VALID,93.295,VALID,0.104696,VALID,23.4263,VALID,126,VALID,0.0121094,
2012-09-09, 02:40:05,VALID,1000.44,VALID,0,VALID,93.4247,VALID,0,VALID,23.4458,VALID,126,VALID,0,
2012-09-09, 02:41:05,VALID,1000.43,VALID,0,VALID,93.501,VALID,0,VALID,23.4458,VALID,126,VALID,0,
2012-09-09, 02:42:05,VALID,1000.43,VALID,0,VALID,93.5163,VALID,0.104696,VALID,23.4475,VALID,126,VALID,0,
2012-09-09, 02:43:05,VALID,1000.46,VALID,0,VALID,93.4552,VALID,0,VALID,23.428,VALID,126,VALID,0,
2012-09-09, 02:44:05,VALID,1000.42,VALID,0,VALID,93.4781,VALID,0,VALID,23.4067,VALID,126,VALID,0,
2012-09-09, 02:45:05,VALID,1000.42,VALID,0,VALID,93.5391,VALID,0.104696,VALID,23.4067,VALID,126,VALID,0,
2012-09-09, 02:46:05,VALID,1000.42,VALID,0,VALID,93.6154,VALID,0,VALID,23.428,VALID,126,VALID,0,
2012-09-09, 02:47:05,VALID,1000.39,VALID,0,VALID,93.6383,VALID,0,VALID,23.3872,VALID,126,VALID,0,
2012-09-09, 02:48:05,VALID,1000.38,VALID,0,VALID,93.6154,VALID,0,VALID,23.3677,VALID,126,VALID,0,
2012-09-09, 02:49:05,VALID,1000.4,VALID,0,VALID,93.6231,VALID,0,VALID,23.3482,VALID,126,VALID,0,
2012-09-09, 02:50:05,VALID,1000.41,VALID,0,VALID,93.7604,VALID,0,VALID,23.3482,VALID,126,VALID,0,
2012-09-09, 02:51:05,VALID,1000.41,VALID,0,VALID,93.8443,VALID,0,VALID,23.3677,VALID,126,VALID,0.59375,
2012-09-09, 02:52:05,VALID,1000.39,VALID,0,VALID,93.8748,VALID,0,VALID,23.35,VALID,126,VALID,0.775781,
2012-09-09, 02:53:05,VALID,1000.36,VALID,0,VALID,93.9054,VALID,0,VALID,23.3305,VALID,126,VALID,0.798437,
2012-09-09, 02:54:05,VALID,1000.37,VALID,0,VALID,93.9664,VALID,0,VALID,23.311,VALID,126,VALID,0.589453,
2012-09-09, 02:55:05,VALID,1000.34,VALID,0,VALID,94.1037,VALID,0,VALID,23.2915,VALID,126,VALID,0.360547,
2012-09-09, 02:56:05,VALID,1000.31,VALID,0,VALID,94.1877,VALID,0,VALID,23.3127,VALID,126,VALID,0.154297,
2012-09-09, 02:57:05,VALID,1000.29,VALID,0,VALID,94.264,VALID,0,VALID,23.2932,VALID,126,VALID,0,
2012-09-09, 02:58:05,VALID,1000.24,VALID,0,VALID,94.264,VALID,0,VALID,23.2737,VALID,126,VALID,0,
2012-09-09, 02:59:05,VALID,1000.25,VALID,0,VALID,94.2792,VALID,0,VALID,23.2329,VALID,126,VALID,0,
2012-09-09, 03:00:05,VALID,1000.22,VALID,0,VALID,94.2182,VALID,0,VALID,23.1939,VALID,126,VALID,0,
2012-09-09, 03:01:05,VALID,1000.19,VALID,0,VALID,94.18,VALID,0,VALID,23.1744,VALID,126,VALID,0,
2012-09-09, 03:02:05,VALID,1000.17,VALID,0,VALID,94.2258,VALID,0,VALID,23.1549,VALID,126,VALID,0,
2012-09-09, 03:03:05,VALID,1000.16,VALID,0,VALID,94.2792,VALID,0,VALID,23.1354,VALID,126,VALID,0.0113281,
2012-09-09, 03:04:05,VALID,1000.15,VALID,0,VALID,94.3326,VALID,0,VALID,23.1159,VALID,126,VALID,0.0304688,
2012-09-09, 03:05:05,VALID,1000.12,VALID,0,VALID,94.4318,VALID,0,VALID,23.1371,VALID,126,VALID,0,
2012-09-09, 03:06:05,VALID,1000.13,VALID,0,VALID,94.5539,VALID,0,VALID,23.1176,VALID,126,VALID,0,
2012-09-09, 03:07:05,VALID,1000.12,VALID,0,VALID,94.592,VALID,0,VALID,23.0981,VALID,126,VALID,0,
2012-09-09, 03:08:05,VALID,1000.12,VALID,0,VALID,94.6683,VALID,0,VALID,23.1159,VALID,126,VALID,0.269922,
2012-09-09, 03:09:05,VALID,1000.12,VALID,0,VALID,94.737,VALID,0,VALID,23.1159,VALID,126,VALID,0.478125,
2012-09-09, 03:10:05,VALID,1000.14,VALID,0,VALID,94.8362,VALID,0,VALID,23.1354,VALID,126,VALID,0.857422,
2012-09-09, 03:11:05,VALID,1000.09,VALID,0,VALID,94.882,VALID,0,VALID,23.1744,VALID,126,VALID,0.844141,
2012-09-09, 03:12:05,VALID,1000.12,VALID,0,VALID,94.8896,VALID,0,VALID,23.1744,VALID,126,VALID,0.941406,
2012-09-09, 03:13:05,VALID,1000.12,VALID,0,VALID,94.7828,VALID,0,VALID,23.1939,VALID,126,VALID,1.06172,
2012-09-09, 03:14:05,VALID,1000.14,VALID,0,VALID,94.7294,VALID,0,VALID,23.2134,VALID,126,VALID,0.896484,
2012-09-09, 03:15:05,VALID,1000.15,VALID,0,VALID,94.6836,VALID,0,VALID,23.2134,VALID,126,VALID,0.806641,
2012-09-09, 03:16:05,VALID,1000.13,VALID,0,VALID,94.6454,VALID,0,VALID,23.2542,VALID,126,VALID,0.722656,
2012-09-09, 03:17:05,VALID,1000.13,VALID,0,VALID,94.5691,VALID,0,VALID,23.2329,VALID,126,VALID,0.585547,
2012-09-09, 03:18:05,VALID,1000.13,VALID,0,VALID,94.4928,VALID,0,VALID,23.2329,VALID,126,VALID,0.425,
2012-09-09, 03:19:05,VALID,1000.19,VALID,0,VALID,94.4242,VALID,0,VALID,23.2134,VALID,126,VALID,0.330859,
2012-09-09, 03:20:05,VALID,1000.19,VALID,0,VALID,94.3937,VALID,0,VALID,23.2134,VALID,126,VALID,0.425391,
2012-09-09, 03:21:05,VALID,1000.22,VALID,0,VALID,94.4089,VALID,0,VALID,23.2329,VALID,126,VALID,0.210547,
2012-09-09, 03:22:05,VALID,1000.24,VALID,0,VALID,94.4623,VALID,0,VALID,23.2329,VALID,126,VALID,0,
2012-09-09, 03:23:05,VALID,1000.26,VALID,0,VALID,94.4928,VALID,0,VALID,23.2329,VALID,126,VALID,0,
2012-09-09, 03:24:05,VALID,1000.29,VALID,0,VALID,94.5081,VALID,0,VALID,23.2329,VALID,126,VALID,0,
2012-09-09, 03:25:05,VALID,1000.28,VALID,0,VALID,94.5234,VALID,0,VALID,23.2329,VALID,126,VALID,0,
2012-09-09, 03:26:05,VALID,1000.32,VALID,0,VALID,94.531,VALID,0,VALID,23.2134,VALID,126,VALID,0,
2012-09-09, 03:27:05,VALID,1000.3,VALID,0,VALID,94.5539,VALID,0,VALID,23.2347,VALID,126,VALID,0,
2012-09-09, 03:28:05,VALID,1000.3,VALID,0,VALID,94.6226,VALID,0,VALID,23.2134,VALID,126,VALID,0.298438,
2012-09-09, 03:29:05,VALID,1000.3,VALID,0,VALID,94.592,VALID,0,VALID,23.2134,VALID,126,VALID,0.632813,
2012-09-09, 03:30:05,VALID,1000.31,VALID,0,VALID,94.5997,VALID,0,VALID,23.2152,VALID,126,VALID,0.465625,
2012-09-09, 03:31:05,VALID,1000.29,VALID,0,VALID,94.5691,VALID,0,VALID,23.1939,VALID,126,VALID,0.648047,
2012-09-09, 03:32:05,VALID,1000.27,VALID,0,VALID,94.5844,VALID,0,VALID,23.1744,VALID,126,VALID,0.646875,
2012-09-09, 03:33:05,VALID,1000.25,VALID,0,VALID,94.6378,VALID,0,VALID,23.1957,VALID,126,VALID,0.605078,
2012-09-09, 03:34:05,VALID,1000.27,VALID,0,VALID,94.6531,VALID,0,VALID,23.1957,VALID,126,VALID,0.524609,
2012-09-09, 03:35:05,VALID,1000.24,VALID,0,VALID,94.6988,VALID,0,VALID,23.1744,VALID,126,VALID,0.443359,
2012-09-09, 03:36:05,VALID,1000.25,VALID,0,VALID,94.6302,VALID,0,VALID,23.1566,VALID,126,VALID,0.317187,
2012-09-09, 03:37:05,VALID,1000.24,VALID,0,VALID,94.6302,VALID,0,VALID,23.1354,VALID,126,VALID,0.358984,
2012-09-09, 03:38:05,VALID,1000.26,VALID,0,VALID,94.6912,VALID,0,VALID,23.1549,VALID,126,VALID,0,
2012-09-09, 03:39:05,VALID,1000.23,VALID,0,VALID,94.6531,VALID,0,VALID,23.0964,VALID,126,VALID,0.0292969,
2012-09-09, 03:40:05,VALID,1000.22,VALID,0,VALID,94.6454,VALID,0,VALID,23.0964,VALID,126,VALID,0,
2012-09-09, 03:41:05,VALID,1000.2,VALID,0,VALID,94.6454,VALID,0,VALID,23.0964,VALID,126,VALID,0.00117188,
2012-09-09, 03:42:05,VALID,1000.22,VALID,0,VALID,94.7065,VALID,0,VALID,23.0964,VALID,126,VALID,0.291406,
2012-09-09, 03:43:05,VALID,1000.23,VALID,0,VALID,94.7294,VALID,0,VALID,23.0556,VALID,126,VALID,0.476563,
2012-09-09, 03:44:05,VALID,1000.23,VALID,0,VALID,94.7599,VALID,0,VALID,23.0964,VALID,126,VALID,0.736328,
2012-09-09, 03:45:05,VALID,1000.24,VALID,0,VALID,94.7523,VALID,0,VALID,23.0751,VALID,126,VALID,0.256641,
2012-09-09, 03:46:05,VALID,1000.29,VALID,0,VALID,94.7065,VALID,0,VALID,23.0751,VALID,126,VALID,0.501562,
2012-09-09, 03:47:05,VALID,1000.3,VALID,0,VALID,94.6607,VALID,0,VALID,23.0556,VALID,126,VALID,0.440625,